Stations météo

réclame
Mon MeteoGroup
Solenzara, France (7765): Température de l'air & dewpoint: 12.06.2018 13:00:00 - 18.06.2018 13:00:00 (CEST)Solenzara, France (7765): Température de l'air 5cm: 12.06.2018 13:00:00 - 18.06.2018 13:00:00 (CEST)Solenzara, France (7765): Température de l'air -20cm: 12.06.2018 13:00:00 - 18.06.2018 13:00:00 (CEST)Solenzara, France (7765): Vitesse du vent & gusts: 12.06.2018 13:00:00 - 18.06.2018 13:00:00 (CEST)Solenzara, France (7765): Direction du vent: 12.06.2018 13:00:00 - 18.06.2018 13:00:00 (CEST)Solenzara, France (7765): reduced air pressure: 12.06.2018 13:00:00 - 18.06.2018 13:00:00 (CEST)Solenzara, France (7765): visibility: 12.06.2018 13:00:00 - 18.06.2018 13:00:00 (CEST)Solenzara, France (7765): Ensoleillement: 12.06.2018 13:00:00 - 18.06.2018 13:00:00 (CEST)Solenzara, France (7765): Quantités de précipitations: 12.06.2018 13:00:00 - 18.06.2018 13:00:00 (CEST)
Date & Time tt [°C] td [°C] tt 5cm [°C] tt -20cm [°C] ff [km/h] ff [knt] fx [km/h] fx [knt] dd ppp [hPa] vv [km] sd [min] rr [mm]
18.06.2018 13:00:00 - - - - - - - - - - - - -
18.06.2018 12:00:00 26,3 19,9 - - 9 5 24 13 ENE 1015,5 27 - 0,0
18.06.2018 11:00:00 25,6 20,2 - - 11 6 21 11 ESE 1015,2 19 - -
18.06.2018 10:00:00 25,1 19,5 31,9 25,0 13 7 18 10 E 1014,9 32 60 0,0
18.06.2018 09:00:00 25,1 19,7 26,3 25,1 10 6 16 9 NE 1015,2 34 60 0,0
18.06.2018 08:00:00 23,1 18,0 22,7 25,2 7 4 10 5 NNE 1014,9 39 58 0,0
18.06.2018 07:00:00 20,6 16,4 - - 5 3 13 7 WNW 1014,5 35 - 0,0
18.06.2018 06:00:00 19,4 15,7 - - 5 3 11 6 W 1014,2 45 - 0,0
18.06.2018 05:00:00 19,6 15,5 18,3 25,7 6 3 13 7 WNW 1013,9 40 0 0,0
18.06.2018 04:00:00 19,8 15,6 - - 9 5 13 7 W 1013,8 45 - 0,0
18.06.2018 03:00:00 20,3 15,7 - - 9 5 15 8 W 1014,3 50 - 0,0
18.06.2018 02:00:00 20,1 15,7 - - 9 5 16 9 W 1014,7 50 - -
18.06.2018 01:00:00 20,5 15,9 19,7 26,4 10 5 14 8 W 1015,0 53 0 0,0
18.06.2018 00:00:00 21,1 15,9 - - 9 5 13 7 W 1015,0 50 - 0,0
17.06.2018 23:00:00 22,1 15,7 - - 5 3 11 6 W 1014,5 60 - -
17.06.2018 22:00:00 22,8 14,6 21,7 26,7 6 3 10 5 WNW 1014,3 60 0 0,0
17.06.2018 21:00:00 24,4 14,5 - - 5 3 9 5 NW 1013,7 60 - 0,0
17.06.2018 20:00:00 26,1 14,2 - - 4 2 9 5 E 1013,3 50 - -
17.06.2018 19:00:00 26,8 15,8 - - 4 2 11 6 ESE 1013,1 45 - 0,0
17.06.2018 18:00:00 27,2 14,9 - - 8 4 16 9 SE 1013,2 35 - 0,0
17.06.2018 17:00:00 27,3 14,3 33,2 25,8 11 6 16 9 SSE 1013,6 48 60 0,0
17.06.2018 16:00:00 27,1 19,2 - - 8 4 16 9 E 1014,2 40 - 0,0
17.06.2018 15:00:00 26,6 18,7 - - 13 7 22 12 E 1014,4 35 - 0,0
17.06.2018 14:00:00 25,8 18,5 - - 13 7 18 10 ESE 1014,8 9 - -
17.06.2018 13:00:00 25,7 18,6 - - 9 5 16 9 E 1014,9 55 - 0,0
17.06.2018 12:00:00 25,9 18,1 - - 8 4 15 8 SE 1014,8 60 - 0,0
17.06.2018 11:00:00 24,6 17,6 - - 8 4 15 8 ESE 1014,7 45 - -
17.06.2018 10:00:00 25,9 14,7 - - 2 1 15 8 E 1014,7 40 - 0,0
17.06.2018 09:00:00 25,2 15,2 - - 4 2 9 5 NE 1014,3 50 - 0,0
17.06.2018 08:00:00 23,0 14,0 - - 5 3 18 10 NNW 1014,0 40 - -
17.06.2018 07:00:00 20,1 9,6 17,7 25,0 10 5 19 11 W 1013,6 51 50 0,0
17.06.2018 06:00:00 18,6 10,2 17,7 25,2 11 6 18 10 W 1013,4 60 0 0,0
17.06.2018 05:00:00 18,9 10,5 18,0 25,4 11 6 19 11 W 1013,4 60 0 0,0
17.06.2018 04:00:00 19,3 10,8 - - 11 6 21 11 W 1013,5 60 - 0,0
17.06.2018 03:00:00 19,6 11,6 - - 11 6 18 10 W 1013,5 60 - 0,0
17.06.2018 02:00:00 20,0 12,2 - - 11 6 16 9 W 1013,6 60 - -
17.06.2018 01:00:00 20,5 12,7 - - 9 5 15 8 W 1013,6 60 - 0,0
17.06.2018 00:00:00 21,0 13,4 - - 4 2 21 11 NNW 1013,5 55 - 0,0
16.06.2018 23:00:00 21,9 14,0 - - 9 5 21 11 W 1013,0 60 - -
16.06.2018 22:00:00 22,0 15,1 - - 9 5 15 8 W 1012,6 60 - 0,0
16.06.2018 21:00:00 23,1 15,9 - - 8 4 13 7 W 1012,1 60 - 0,0
16.06.2018 20:00:00 24,9 14,7 - - 8 4 11 6 S 1011,9 55 - -
16.06.2018 19:00:00 25,6 15,0 - - 11 6 16 9 S 1011,8 60 - 0,0
16.06.2018 18:00:00 26,2 14,3 - - 8 4 16 9 SSE 1011,9 55 - 0,0
16.06.2018 17:00:00 26,4 13,8 - - 9 5 18 10 SSE 1012,0 35 - -
16.06.2018 16:00:00 26,1 15,5 - - 11 6 18 10 SSE 1012,2 45 - 0,0
16.06.2018 15:00:00 25,8 16,1 - - 9 5 18 10 SE 1012,4 30 - 0,0
16.06.2018 14:00:00 26,2 15,3 - - 8 4 21 11 ESE 1012,7 29 - -
16.06.2018 13:00:00 26,1 15,8 - - 8 4 24 13 ESE 1012,9 35 - 0,0
16.06.2018 12:00:00 25,8 16,4 - - 16 9 31 17 ENE 1013,2 30 - 0,0
16.06.2018 11:00:00 25,6 15,6 - - 21 11 29 16 ENE 1012,7 35 - -
16.06.2018 10:00:00 26,1 15,5 31,3 23,9 14 8 21 11 ENE 1012,2 42 60 0,0
16.06.2018 09:00:00 25,5 13,7 - - 5 3 13 7 NNE 1012,2 55 - 0,0
16.06.2018 08:00:00 23,1 14,1 - - 5 3 15 8 W 1011,9 45 - -
16.06.2018 07:00:00 20,0 13,0 18,0 24,4 10 5 18 10 W 1012,0 51 42 0,0
16.06.2018 06:00:00 18,7 12,4 17,8 24,6 11 6 18 10 W 1012,0 60 0 0,0
16.06.2018 05:00:00 19,0 12,3 - - 11 6 16 9 W 1011,9 60 - -
16.06.2018 04:00:00 18,7 12,2 - - 5 3 18 10 WNW 1012,0 60 - 0,0
16.06.2018 03:00:00 20,1 11,8 - - 11 6 18 10 W 1011,6 60 - 0,0
16.06.2018 02:00:00 19,9 12,2 - - 9 5 16 9 W 1011,7 60 - -
16.06.2018 01:00:00 20,3 12,8 - - 9 5 21 11 W 1011,8 60 - 0,0
16.06.2018 00:00:00 20,5 13,5 - - 11 6 21 11 W 1011,8 60 - 0,0
15.06.2018 23:00:00 20,9 13,8 19,8 25,8 10 5 23 12 WNW 1011,6 60 0 0,0
15.06.2018 22:00:00 21,3 14,5 - - 11 6 22 12 W 1011,2 60 - 0,0
15.06.2018 21:00:00 22,2 15,3 - - 9 5 18 10 W 1010,9 60 - 0,0
15.06.2018 20:00:00 24,5 14,3 24,8 25,8 6 3 9 5 S 1010,8 60 56 0,0
15.06.2018 19:00:00 25,8 14,6 - - 4 2 13 7 SE 1010,3 50 - 0,0
15.06.2018 18:00:00 26,3 13,8 - - 5 3 15 8 ESE 1010,2 40 - 0,0
15.06.2018 17:00:00 26,0 15,4 - - 5 3 15 8 SE 1010,3 35 - -
15.06.2018 16:00:00 25,2 15,5 - - 13 7 31 17 ENE 1010,7 55 - 0,0
15.06.2018 15:00:00 26,1 15,5 29,4 24,4 22 12 37 20 NE 1010,4 20 60 0,0
15.06.2018 14:00:00 26,9 15,3 - - 21 11 34 18 ENE 1010,2 21 - -
15.06.2018 13:00:00 26,0 17,9 - - 21 11 37 20 NE 1010,2 22 - 0,0
15.06.2018 12:00:00 25,7 17,9 - - 21 11 29 16 NE 1010,5 27 - 0,0
15.06.2018 11:00:00 25,3 16,2 - - 18 10 31 17 ENE 1010,2 35 - -
15.06.2018 10:00:00 25,7 16,8 30,3 23,3 11 6 19 11 ENE 1010,2 37 60 0,0
15.06.2018 09:00:00 25,0 16,7 - - 11 6 15 8 NNE 1010,3 55 - 0,0
15.06.2018 08:00:00 22,5 16,1 22,7 23,5 7 4 11 6 NNW 1010,1 60 60 0,0
15.06.2018 07:00:00 20,5 14,8 - - 5 3 16 9 E 1010,0 40 - 0,0
15.06.2018 06:00:00 18,6 14,7 - - 9 5 18 10 W 1009,6 60 - 0,0
15.06.2018 05:00:00 18,9 14,8 18,0 24,0 13 7 18 10 W 1009,2 60 0 0,0
15.06.2018 04:00:00 19,1 14,6 - - 8 4 18 10 W 1009,2 60 - 0,0
15.06.2018 03:00:00 19,3 14,1 18,4 24,4 11 6 20 11 W 1009,2 60 0 0,0
15.06.2018 02:00:00 19,5 13,7 - - 11 6 21 11 W 1009,3 60 - -
15.06.2018 01:00:00 19,6 14,2 18,8 24,7 11 6 22 12 W 1009,5 60 0 0,0
15.06.2018 00:00:00 19,7 15,1 - - 11 6 22 12 W 1009,5 55 - 0,0
14.06.2018 23:00:00 19,8 16,1 19,1 25,0 11 6 21 11 W 1009,3 60 0 0,0
14.06.2018 22:00:00 20,2 16,8 19,6 25,0 10 6 21 11 W 1008,9 60 0 0,0
14.06.2018 21:00:00 20,9 17,3 - - 9 5 18 10 W 1008,6 60 - 0,0
14.06.2018 20:00:00 23,3 17,1 - - 5 3 11 6 WSW 1008,3 55 - -
14.06.2018 19:00:00 23,8 16,8 - - 5 3 15 8 SE 1008,0 55 - 0,0
14.06.2018 18:00:00 24,3 17,8 27,1 24,9 9 5 16 9 E 1007,5 45 60 0,0
14.06.2018 17:00:00 23,0 17,2 19,9 24,7 9 5 25 13 WSW 1007,4 60 28 0,0
14.06.2018 16:00:00 21,2 17,4 20,1 24,3 12 7 24 13 WSW 1008,1 25 5 0,0
14.06.2018 15:00:00 25,2 18,9 28,0 23,9 15 8 22 12 E 1007,9 41 42 0,0
14.06.2018 14:00:00 25,6 17,0 30,1 23,5 16 9 27 14 ENE 1007,5 37 60 0,0
14.06.2018 13:00:00 25,2 17,7 31,5 23,2 19 10 28 15 ENE 1007,5 41 60 0,0
14.06.2018 12:00:00 24,9 17,9 - - 18 10 28 15 ENE 1007,3 45 - 0,0
14.06.2018 11:00:00 24,4 17,4 30,2 22,8 16 8 24 13 ENE 1007,3 60 60 0,0
14.06.2018 10:00:00 24,2 15,4 27,5 22,7 6 3 15 8 N 1007,0 18 60 0,0
14.06.2018 09:00:00 22,9 14,5 - - 8 4 13 7 N 1007,0 40 - 0,0
14.06.2018 08:00:00 19,7 14,9 16,7 23,0 6 4 19 10 W 1006,4 40 47 0,0
14.06.2018 07:00:00 16,5 14,0 - - 11 6 18 10 W 1006,4 60 - 0,0
14.06.2018 06:00:00 16,1 13,9 15,2 23,3 9 5 16 8 W 1006,2 60 0 0,0
14.06.2018 05:00:00 16,1 14,1 15,3 23,5 11 6 17 9 W 1005,5 60 0 0,0
14.06.2018 04:00:00 16,5 14,9 - - 4 2 13 7 WNW 1005,5 60 - 0,2
14.06.2018 03:00:00 16,8 15,3 - - 8 4 15 8 WNW 1005,6 60 - 1,0
14.06.2018 02:00:00 17,5 16,0 16,0 24,0 9 5 19 11 SSW 1006,3 5 0 1,2
14.06.2018 01:00:00 18,0 14,3 - - 5 3 15 8 W 1006,0 60 - 0,0
14.06.2018 00:00:00 17,5 14,2 17,1 24,3 9 5 16 8 W 1005,5 60 0 0,0
13.06.2018 23:00:00 17,6 14,3 16,7 24,4 6 4 14 8 W 1005,3 60 0 0,0
13.06.2018 22:00:00 18,0 15,6 - - 5 3 16 9 WNW 1005,3 29 - 0,2
13.06.2018 21:00:00 18,2 15,8 17,6 24,7 8 4 15 8 W 1004,7 60 16 0,0
13.06.2018 20:00:00 19,5 16,5 18,8 24,7 8 5 16 9 W 1004,3 60 28 0,0
13.06.2018 19:00:00 19,8 16,6 - - 8 4 13 7 W 1004,5 55 - 0,2
13.06.2018 18:00:00 19,6 17,4 - - 8 4 26 14 NNW 1004,6 10 - 4,0
13.06.2018 17:00:00 22,4 16,0 25,8 24,7 9 5 16 9 ENE 1004,1 60 55 0,0
13.06.2018 16:00:00 21,6 15,9 20,4 24,7 3 2 8 4 NE 1004,4 60 17 0,0
13.06.2018 15:00:00 18,7 15,4 16,6 24,7 0 0 19 10 N 1004,9 60 0 0,4
13.06.2018 14:00:00 17,9 15,2 16,6 24,7 13 7 28 15 W 1005,2 18 0 2,2
13.06.2018 13:00:00 21,3 17,1 - - 8 4 9 5 NNW 1005,1 60 - 0,4
13.06.2018 12:00:00 22,0 16,0 - - 8 4 18 10 SE 1005,4 55 - 0,0
13.06.2018 11:00:00 21,9 16,4 21,1 24,6 5 3 11 6 S 1005,9 60 43 0,0
13.06.2018 10:00:00 19,4 15,7 17,2 24,7 2 1 13 7 N 1006,5 58 4 0,2
13.06.2018 09:00:00 18,2 16,2 17,1 24,8 9 5 28 15 NW 1007,1 9 0 0,8
13.06.2018 08:00:00 20,1 16,7 17,9 25,0 5 3 13 7 NNW 1006,3 56 4 0,0
13.06.2018 07:00:00 18,3 15,7 - - 8 4 16 9 SW 1006,3 55 - 0,2
13.06.2018 06:00:00 18,9 15,0 16,7 25,3 8 4 16 9 WSW 1007,3 11 0 0,4
13.06.2018 05:00:00 19,4 14,9 17,3 25,5 9 5 14 8 W 1007,0 39 0 0,0
13.06.2018 04:00:00 18,8 14,5 - - 8 4 13 7 W 1007,0 55 - 0,0
13.06.2018 03:00:00 19,2 16,4 - - 4 2 11 6 SSW 1007,5 40 - 0,0
13.06.2018 02:00:00 20,0 17,4 - - 4 2 9 5 W 1008,1 40 - -
13.06.2018 01:00:00 20,5 17,5 - - 4 2 11 6 WSW 1008,7 40 - 0,0
13.06.2018 00:00:00 20,5 17,7 - - 2 1 13 7 SSE 1009,0 40 - 0,0
12.06.2018 23:00:00 20,9 17,1 - - 5 3 16 9 NW 1009,3 40 - -
12.06.2018 22:00:00 21,1 17,7 - - 5 3 11 6 NW 1009,2 35 - 0,0
12.06.2018 21:00:00 22,5 18,5 - - 4 2 11 6 WSW 1008,7 45 - 0,0
12.06.2018 20:00:00 23,3 18,2 - - 8 4 18 10 S 1008,6 50 - -
12.06.2018 19:00:00 23,5 18,2 - - 9 5 34 18 NE 1008,6 40 - 0,0
12.06.2018 18:00:00 25,2 20,5 - - 18 10 28 15 NE 1008,3 40 - 0,0
12.06.2018 17:00:00 25,3 19,9 - - 11 6 26 14 E 1008,3 19 - -
12.06.2018 16:00:00 25,7 20,0 32,8 25,4 16 8 23 13 E 1008,1 21 60 0,0
12.06.2018 15:00:00 26,5 19,4 - - 13 7 24 13 ENE 1008,5 19 - 0,0
12.06.2018 14:00:00 26,0 19,4 32,4 24,6 12 6 20 11 E 1008,8 19 60 0,0
12.06.2018 13:00:00 25,9 18,3 32,6 24,3 12 6 22 12 SE 1009,1 20 60 0,0

tt = Température de l'air
td = dewpoint
tt 5cm = Température de l'air 5cm
tt -20cm = Température de l'air -20cm
ff = Vitesse du vent
fx = gusts
dd = Direction du vent
ppp = reduced air pressure
vv = visibility
sd = Ensoleillement
rr = Quantités de précipitations

stations d'obs. à proximité